iso_date,epoch_date,Year,Hour,Min,DOY,POS_DOY,Lat,Lon,BP,Ts,Ta,has_bp,has_ts,has_ta,BuoyID,Buoy_Type,Buoy_Owner,Logistics,Hemisphere
2018-04-11T01:00:28Z,1523408429,2018,1,0,101.042,101.042,-67.0102,-167.5108,1006.6,-1.23,-999.0,yes,yes,no,300234065333780,BD2GI,AOML,Palmer,South
2018-04-11T01:59:31Z,1523411971,2018,2,0,101.083,101.083,-67.0162,-167.507,1005.9,-1.23,-999.0,yes,yes,no,300234065333780,BD2GI,AOML,Palmer,South
2018-04-11T03:00:00Z,1523415600,2018,3,0,101.125,101.125,-67.0214,-167.4936,1006.0,-1.23,-999.0,yes,yes,no,300234065333780,BD2GI,AOML,Palmer,South
2018-04-11T04:00:28Z,1523419229,2018,4,0,101.167,101.167,-67.0234,-167.4734,1005.9,-1.19,-999.0,yes,yes,no,300234065333780,BD2GI,AOML,Palmer,South
2018-04-11T04:59:31Z,1523422771,2018,5,0,101.208,101.208,-67.0208,-167.4508,1005.4,-1.19,-999.0,yes,yes,no,300234065333780,BD2GI,AOML,Palmer,South
2018-04-11T06:00:00Z,1523426400,2018,6,0,101.25,101.25,-67.016,-167.4324,1004.6,-1.19,-999.0,yes,yes,no,300234065333780,BD2GI,AOML,Palmer,South
2018-04-11T07:00:28Z,1523430029,2018,7,0,101.292,101.292,-67.0074,-167.42,1004.0,-1.19,-999.0,yes,yes,no,300234065333780,BD2GI,AOML,Palmer,South
2018-04-11T07:59:31Z,1523433571,2018,8,0,101.333,101.333,-66.9646,-167.5034,1003.5,-1.16,-999.0,yes,yes,no,300234065333780,BD2GI,AOML,Palmer,South
2018-04-11T09:00:00Z,1523437200,2018,9,0,101.375,101.375,-66.9902,-167.415,1002.8,-1.16,-999.0,yes,yes,no,300234065333780,BD2GI,AOML,Palmer,South
2018-04-11T10:00:28Z,1523440829,2018,10,0,101.417,101.417,-66.9838,-167.4192,1002.6,-1.16,-999.0,yes,yes,no,300234065333780,BD2GI,AOML,Palmer,South
2018-04-11T10:59:31Z,1523444371,2018,11,0,101.458,101.458,-66.9838,-167.4192,1002.1,-1.16,-999.0,yes,yes,no,300234065333780,BD2GI,AOML,Palmer,South
2018-04-11T12:00:00Z,1523448000,2018,12,0,101.5,101.5,-66.9776,-167.4406,1001.7,-1.12,-999.0,yes,yes,no,300234065333780,BD2GI,AOML,Palmer,South
2018-04-11T13:00:28Z,1523451629,2018,13,0,101.542,101.542,-66.9798,-167.4456,1001.4,-1.12,-999.0,yes,yes,no,300234065333780,BD2GI,AOML,Palmer,South
2018-04-11T13:59:31Z,1523455171,2018,14,0,101.583,101.583,-66.9826,-167.4418,1001.3,-1.09,-999.0,yes,yes,no,300234065333780,BD2GI,AOML,Palmer,South
2018-04-11T15:00:00Z,1523458800,2018,15,0,101.625,101.625,-66.985,-167.4318,1001.5,-1.09,-999.0,yes,yes,no,300234065333780,BD2GI,AOML,Palmer,South
2018-04-11T16:00:28Z,1523462429,2018,16,0,101.667,101.667,-66.9844,-167.4102,1002.3,-1.09,-999.0,yes,yes,no,300234065333780,BD2GI,AOML,Palmer,South
2018-04-11T16:59:31Z,1523465971,2018,17,0,101.708,101.708,-66.9824,-167.3908,1003.8,-1.09,-999.0,yes,yes,no,300234065333780,BD2GI,AOML,Palmer,South
2018-04-11T18:00:00Z,1523469600,2018,18,0,101.75,101.75,-66.9772,-167.3742,1004.9,-1.12,-999.0,yes,yes,no,300234065333780,BD2GI,AOML,Palmer,South
2018-04-11T19:00:28Z,1523473229,2018,19,0,101.792,101.792,-66.9706,-167.3566,1005.9,-1.12,-999.0,yes,yes,no,300234065333780,BD2GI,AOML,Palmer,South
2018-04-11T19:59:31Z,1523476771,2018,20,0,101.833,101.833,-66.9628,-167.3498,1007.1,-1.12,-999.0,yes,yes,no,300234065333780,BD2GI,AOML,Palmer,South
2018-04-11T21:00:00Z,1523480400,2018,21,0,101.875,101.875,-66.956,-167.346,1008.1,-1.12,-999.0,yes,yes,no,300234065333780,BD2GI,AOML,Palmer,South
2018-04-11T22:00:28Z,1523484029,2018,22,0,101.917,101.917,-66.9496,-167.35,1008.8,-1.12,-999.0,yes,yes,no,300234065333780,BD2GI,AOML,Palmer,South
2018-04-11T22:59:31Z,1523487571,2018,23,0,101.958,101.958,-66.9458,-167.3552,1009.4,-1.12,-999.0,yes,yes,no,300234065333780,BD2GI,AOML,Palmer,South
2018-04-12T00:00:00Z,1523491200,2018,0,0,102.0,102.0,-66.945,-167.3622,1010.0,-1.12,-999.0,yes,yes,no,300234065333780,BD2GI,AOML,Palmer,South
2018-04-12T01:00:28Z,1523494829,2018,1,0,102.042,102.042,-66.9468,-167.3674,1010.3,-1.12,-999.0,yes,yes,no,300234065333780,BD2GI,AOML,Palmer,South
2018-04-12T01:59:31Z,1523498371,2018,2,0,102.083,102.083,-66.951,-167.37,1010.6,-1.12,-999.0,yes,yes,no,300234065333780,BD2GI,AOML,Palmer,South
2018-04-12T03:00:00Z,1523502000,2018,3,0,102.125,102.125,-66.9562,-167.3678,1011.1,-1.12,-999.0,yes,yes,no,300234065333780,BD2GI,AOML,Palmer,South
2018-04-12T04:00:28Z,1523505629,2018,4,0,102.167,102.167,-66.9614,-167.3554,1011.5,-1.12,-999.0,yes,yes,no,300234065333780,BD2GI,AOML,Palmer,South
2018-04-12T04:59:31Z,1523509171,2018,5,0,102.208,102.208,-66.9658,-167.3364,1011.5,-1.12,-999.0,yes,yes,no,300234065333780,BD2GI,AOML,Palmer,South
2018-04-12T06:00:00Z,1523512800,2018,6,0,102.25,102.25,-66.967,-167.3146,1012.0,-1.12,-999.0,yes,yes,no,300234065333780,BD2GI,AOML,Palmer,South
2018-04-12T07:00:28Z,1523516429,2018,7,0,102.292,102.292,-66.9662,-167.2936,1012.3,-1.12,-999.0,yes,yes,no,300234065333780,BD2GI,AOML,Palmer,South
2018-04-12T07:59:31Z,1523519971,2018,8,0,102.333,102.333,-66.963,-167.2778,1012.3,-1.12,-999.0,yes,yes,no,300234065333780,BD2GI,AOML,Palmer,South
2018-04-12T09:00:00Z,1523523600,2018,9,0,102.375,102.375,-66.958,-167.2666,1012.4,-1.12,-999.0,yes,yes,no,300234065333780,BD2GI,AOML,Palmer,South
2018-04-12T10:00:28Z,1523527229,2018,10,0,102.417,102.417,-66.9534,-167.2608,1012.3,-1.12,-999.0,yes,yes,no,300234065333780,BD2GI,AOML,Palmer,South
2018-04-12T10:59:31Z,1523530771,2018,11,0,102.458,102.458,-66.9486,-167.2628,1012.2,-1.12,-999.0,yes,yes,no,300234065333780,BD2GI,AOML,Palmer,South
2018-04-12T12:00:00Z,1523534400,2018,12,0,102.5,102.5,-66.9448,-167.2702,1011.5,-1.12,-999.0,yes,yes,no,300234065333780,BD2GI,AOML,Palmer,South
2018-04-12T13:00:28Z,1523538029,2018,13,0,102.542,102.542,-66.9452,-167.282,1011.1,-1.12,-999.0,yes,yes,no,300234065333780,BD2GI,AOML,Palmer,South
2018-04-12T13:59:31Z,1523541571,2018,14,0,102.583,102.583,-66.9484,-167.29,1010.3,-1.12,-999.0,yes,yes,no,300234065333780,BD2GI,AOML,Palmer,South
2018-04-12T15:00:00Z,1523545200,2018,15,0,102.625,102.625,-66.9536,-167.2936,1010.1,-1.12,-999.0,yes,yes,no,300234065333780,BD2GI,AOML,Palmer,South
2018-04-12T16:00:28Z,1523548829,2018,16,0,102.667,102.667,-66.9598,-167.2932,1009.6,-1.12,-999.0,yes,yes,no,300234065333780,BD2GI,AOML,Palmer,South
2018-04-12T16:59:31Z,1523552371,2018,17,0,102.708,102.708,-66.9666,-167.2832,1008.9,-1.12,-999.0,yes,yes,no,300234065333780,BD2GI,AOML,Palmer,South
2018-04-12T18:00:00Z,1523556000,2018,18,0,102.75,102.75,-66.9712,-167.2698,1008.1,-1.12,-999.0,yes,yes,no,300234065333780,BD2GI,AOML,Palmer,South
2018-04-12T19:00:28Z,1523559629,2018,19,0,102.792,102.792,-66.9738,-167.2532,1007.4,-1.12,-999.0,yes,yes,no,300234065333780,BD2GI,AOML,Palmer,South
2018-04-12T19:59:31Z,1523563171,2018,20,0,102.833,102.833,-66.974,-167.2334,1006.6,-1.12,-999.0,yes,yes,no,300234065333780,BD2GI,AOML,Palmer,South
2018-04-12T21:00:00Z,1523566800,2018,21,0,102.875,102.875,-66.972,-167.218,1005.2,-1.12,-999.0,yes,yes,no,300234065333780,BD2GI,AOML,Palmer,South
2018-04-12T22:00:28Z,1523570429,2018,22,0,102.917,102.917,-66.9676,-167.207,1004.3,-1.12,-999.0,yes,yes,no,300234065333780,BD2GI,AOML,Palmer,South
2018-04-12T22:59:31Z,1523573971,2018,23,0,102.958,102.958,-66.9624,-167.2048,1003.3,-1.12,-999.0,yes,yes,no,300234065333780,BD2GI,AOML,Palmer,South
2018-04-13T00:00:00Z,1523577600,2018,0,0,103.0,103.0,-66.9582,-167.209,1002.1,-1.12,-999.0,yes,yes,no,300234065333780,BD2GI,AOML,Palmer,South
2018-04-13T01:00:28Z,1523581229,2018,1,0,103.042,103.042,-66.956,-167.221,1000.5,-1.12,-999.0,yes,yes,no,300234065333780,BD2GI,AOML,Palmer,South
2018-04-13T01:59:31Z,1523584771,2018,2,0,103.083,103.083,-66.9564,-167.2338,998.8,-1.12,-999.0,yes,yes,no,300234065333780,BD2GI,AOML,Palmer,South
2018-04-13T03:00:00Z,1523588400,2018,3,0,103.125,103.125,-66.9596,-167.2448,997.3,-1.16,-999.0,yes,yes,no,300234065333780,BD2GI,AOML,Palmer,South
2018-04-13T04:00:28Z,1523592029,2018,4,0,103.167,103.167,-66.965,-167.2538,995.9,-1.16,-999.0,yes,yes,no,300234065333780,BD2GI,AOML,Palmer,South
2018-04-13T04:59:31Z,1523595571,2018,5,0,103.208,103.208,-66.9714,-167.2562,994.7,-1.16,-999.0,yes,yes,no,300234065333780,BD2GI,AOML,Palmer,South
2018-04-13T06:00:00Z,1523599200,2018,6,0,103.25,103.25,-66.978,-167.2528,993.3,-1.16,-999.0,yes,yes,no,300234065333780,BD2GI,AOML,Palmer,South
2018-04-13T07:00:28Z,1523602829,2018,7,0,103.292,103.292,-66.9844,-167.2436,992.2,-1.16,-999.0,yes,yes,no,300234065333780,BD2GI,AOML,Palmer,South
2018-04-13T07:59:31Z,1523606371,2018,8,0,103.333,103.333,-66.988,-167.2286,990.5,-1.16,-999.0,yes,yes,no,300234065333780,BD2GI,AOML,Palmer,South
2018-04-13T09:00:00Z,1523610000,2018,9,0,103.375,103.375,-66.9886,-167.2118,989.2,-1.16,-999.0,yes,yes,no,300234065333780,BD2GI,AOML,Palmer,South
2018-04-13T10:00:28Z,1523613629,2018,10,0,103.417,103.417,-66.9864,-167.1986,988.0,-1.16,-999.0,yes,yes,no,300234065333780,BD2GI,AOML,Palmer,South
2018-04-13T10:59:31Z,1523617171,2018,11,0,103.458,103.458,-66.9814,-167.19,986.6,-1.19,-999.0,yes,yes,no,300234065333780,BD2GI,AOML,Palmer,South
2018-04-13T12:00:00Z,1523620800,2018,12,0,103.5,103.5,-66.9752,-167.1896,985.3,-1.19,-999.0,yes,yes,no,300234065333780,BD2GI,AOML,Palmer,South
2018-04-13T13:00:28Z,1523624429,2018,13,0,103.542,103.542,-66.9696,-167.2012,984.0,-1.19,-999.0,yes,yes,no,300234065333780,BD2GI,AOML,Palmer,South
2018-04-13T13:59:31Z,1523627971,2018,14,0,103.583,103.583,-66.9664,-167.2162,982.4,-1.23,-999.0,yes,yes,no,300234065333780,BD2GI,AOML,Palmer,South
2018-04-13T15:00:00Z,1523631600,2018,15,0,103.625,103.625,-66.9676,-167.2336,981.6,-1.23,-999.0,yes,yes,no,300234065333780,BD2GI,AOML,Palmer,South
2018-04-13T16:00:28Z,1523635229,2018,16,0,103.667,103.667,-66.9714,-167.2478,980.8,-1.23,-999.0,yes,yes,no,300234065333780,BD2GI,AOML,Palmer,South
2018-04-13T16:59:31Z,1523638771,2018,17,0,103.708,103.708,-66.977,-167.2548,979.8,-1.23,-999.0,yes,yes,no,300234065333780,BD2GI,AOML,Palmer,South
2018-04-13T18:00:00Z,1523642400,2018,18,0,103.75,103.75,-66.9824,-167.2536,978.5,-1.23,-999.0,yes,yes,no,300234065333780,BD2GI,AOML,Palmer,South
2018-04-13T19:00:28Z,1523646029,2018,19,0,103.792,103.792,-67.017,-167.2342,977.3,-1.23,-999.0,yes,yes,no,300234065333780,BD2GI,AOML,Palmer,South
2018-04-13T19:59:31Z,1523649571,2018,20,0,103.833,103.833,-66.9898,-167.2364,976.1,-1.23,-999.0,yes,yes,no,300234065333780,BD2GI,AOML,Palmer,South
2018-04-13T21:00:00Z,1523653200,2018,21,0,103.875,103.875,-66.991,-167.2216,974.8,-1.23,-999.0,yes,yes,no,300234065333780,BD2GI,AOML,Palmer,South
2018-04-13T22:00:28Z,1523656829,2018,22,0,103.917,103.917,-66.9894,-167.2066,974.0,-1.23,-999.0,yes,yes,no,300234065333780,BD2GI,AOML,Palmer,South
2018-04-13T22:59:31Z,1523660371,2018,23,0,103.958,103.958,-66.9894,-167.2066,973.5,-1.23,-999.0,yes,yes,no,300234065333780,BD2GI,AOML,Palmer,South
2018-04-14T00:00:00Z,1523664000,2018,0,0,104.0,104.0,-66.9772,-167.1828,974.6,-1.23,-999.0,yes,yes,no,300234065333780,BD2GI,AOML,Palmer,South
2018-04-14T01:00:28Z,1523667629,2018,1,0,104.042,104.042,-66.9684,-167.1772,974.9,-1.23,-999.0,yes,yes,no,300234065333780,BD2GI,AOML,Palmer,South
2018-04-14T01:59:31Z,1523671171,2018,2,0,104.083,104.083,-66.9572,-167.1814,976.2,-1.19,-999.0,yes,yes,no,300234065333780,BD2GI,AOML,Palmer,South
2018-04-14T03:00:00Z,1523674800,2018,3,0,104.125,104.125,-66.9572,-167.1814,978.0,-1.19,-999.0,yes,yes,no,300234065333780,BD2GI,AOML,Palmer,South
2018-04-14T04:00:28Z,1523678429,2018,4,0,104.167,104.167,-66.9414,-167.2098,980.1,-1.16,-999.0,yes,yes,no,300234065333780,BD2GI,AOML,Palmer,South
2018-04-14T04:59:31Z,1523681971,2018,5,0,104.208,104.208,-66.9394,-167.2254,981.6,-1.16,-999.0,yes,yes,no,300234065333780,BD2GI,AOML,Palmer,South
2018-04-14T06:00:00Z,1523685600,2018,6,0,104.25,104.25,-66.9394,-167.2376,983.6,-1.16,-999.0,yes,yes,no,300234065333780,BD2GI,AOML,Palmer,South
2018-04-14T07:00:28Z,1523689229,2018,7,0,104.292,104.292,-66.9416,-167.2422,984.2,-1.16,-999.0,yes,yes,no,300234065333780,BD2GI,AOML,Palmer,South
2018-04-14T07:59:31Z,1523692771,2018,8,0,104.333,104.333,-66.9416,-167.2422,985.3,-1.16,-999.0,yes,yes,no,300234065333780,BD2GI,AOML,Palmer,South
2018-04-14T09:00:00Z,1523696400,2018,9,0,104.375,104.375,-66.9502,-167.2306,986.2,-1.16,-999.0,yes,yes,no,300234065333780,BD2GI,AOML,Palmer,South
2018-04-14T10:00:28Z,1523700029,2018,10,0,104.417,104.417,-66.9532,-167.2158,987.3,-1.16,-999.0,yes,yes,no,300234065333780,BD2GI,AOML,Palmer,South
2018-04-14T10:59:31Z,1523703571,2018,11,0,104.458,104.458,-66.954,-167.1964,988.3,-1.16,-999.0,yes,yes,no,300234065333780,BD2GI,AOML,Palmer,South
2018-04-14T12:00:00Z,1523707200,2018,12,0,104.5,104.5,-66.9516,-167.1764,988.7,-1.19,-999.0,yes,yes,no,300234065333780,BD2GI,AOML,Palmer,South
2018-04-14T13:00:28Z,1523710829,2018,13,0,104.542,104.542,-66.9458,-167.158,989.4,-1.16,-999.0,yes,yes,no,300234065333780,BD2GI,AOML,Palmer,South
2018-04-14T13:59:31Z,1523714371,2018,14,0,104.583,104.583,-66.9368,-167.1482,990.1,-1.16,-999.0,yes,yes,no,300234065333780,BD2GI,AOML,Palmer,South
2018-04-14T15:00:00Z,1523718000,2018,15,0,104.625,104.625,-66.929,-167.1442,990.3,-1.16,-999.0,yes,yes,no,300234065333780,BD2GI,AOML,Palmer,South
2018-04-14T16:00:28Z,1523721629,2018,16,0,104.667,104.667,-66.922,-167.1482,990.4,-1.16,-999.0,yes,yes,no,300234065333780,BD2GI,AOML,Palmer,South
2018-04-14T16:59:31Z,1523725171,2018,17,0,104.708,104.708,-66.9176,-167.1564,991.1,-1.19,-999.0,yes,yes,no,300234065333780,BD2GI,AOML,Palmer,South
2018-04-14T18:00:00Z,1523728800,2018,18,0,104.75,104.75,-66.9152,-167.1686,991.7,-1.16,-999.0,yes,yes,no,300234065333780,BD2GI,AOML,Palmer,South
2018-04-14T19:00:28Z,1523732429,2018,19,0,104.792,104.792,-66.9168,-167.1818,992.8,-1.16,-999.0,yes,yes,no,300234065333780,BD2GI,AOML,Palmer,South
2018-04-14T19:59:31Z,1523735971,2018,20,0,104.833,104.833,-66.92,-167.1882,993.9,-1.16,-999.0,yes,yes,no,300234065333780,BD2GI,AOML,Palmer,South
2018-04-14T21:00:00Z,1523739600,2018,21,0,104.875,104.875,-66.923,-167.1874,995.1,-1.16,-999.0,yes,yes,no,300234065333780,BD2GI,AOML,Palmer,South
2018-04-14T22:00:28Z,1523743229,2018,22,0,104.917,104.917,-66.9258,-167.1832,995.5,-1.16,-999.0,yes,yes,no,300234065333780,BD2GI,AOML,Palmer,South
2018-04-14T22:59:31Z,1523746771,2018,23,0,104.958,104.958,-66.9292,-167.1702,996.1,-1.19,-999.0,yes,yes,no,300234065333780,BD2GI,AOML,Palmer,South
2018-04-15T00:00:00Z,1523750400,2018,0,0,105.0,105.0,-66.9288,-167.1538,996.7,-1.19,-999.0,yes,yes,no,300234065333780,BD2GI,AOML,Palmer,South
2018-04-15T01:00:28Z,1523754029,2018,1,0,105.042,105.042,-66.9248,-167.1346,996.8,-1.16,-999.0,yes,yes,no,300234065333780,BD2GI,AOML,Palmer,South
2018-04-15T01:59:31Z,1523757571,2018,2,0,105.083,105.083,-66.9186,-167.1196,997.5,-1.16,-999.0,yes,yes,no,300234065333780,BD2GI,AOML,Palmer,South
2018-04-15T03:00:00Z,1523761200,2018,3,0,105.125,105.125,-66.9116,-167.1112,997.8,-1.16,-999.0,yes,yes,no,300234065333780,BD2GI,AOML,Palmer,South
2018-04-15T04:00:28Z,1523764829,2018,4,0,105.167,105.167,-66.904,-167.1088,998.4,-1.19,-999.0,yes,yes,no,300234065333780,BD2GI,AOML,Palmer,South
2018-04-15T04:59:31Z,1523768371,2018,5,0,105.208,105.208,-66.8968,-167.1128,998.8,-1.19,-999.0,yes,yes,no,300234065333780,BD2GI,AOML,Palmer,South
2018-04-15T06:00:00Z,1523772000,2018,6,0,105.25,105.25,-66.8932,-167.1214,998.9,-1.19,-999.0,yes,yes,no,300234065333780,BD2GI,AOML,Palmer,South
2018-04-15T07:00:28Z,1523775629,2018,7,0,105.292,105.292,-66.8916,-167.1346,998.8,-1.23,-999.0,yes,yes,no,300234065333780,BD2GI,AOML,Palmer,South
2018-04-15T07:59:31Z,1523779171,2018,8,0,105.333,105.333,-66.8934,-167.1482,998.6,-1.23,-999.0,yes,yes,no,300234065333780,BD2GI,AOML,Palmer,South
2018-04-15T09:00:00Z,1523782800,2018,9,0,105.375,105.375,-66.8986,-167.1578,998.6,-1.23,-999.0,yes,yes,no,300234065333780,BD2GI,AOML,Palmer,South
2018-04-15T10:00:28Z,1523786429,2018,10,0,105.417,105.417,-66.9042,-167.1592,997.6,-1.23,-999.0,yes,yes,no,300234065333780,BD2GI,AOML,Palmer,South
2018-04-15T10:59:31Z,1523789971,2018,11,0,105.458,105.458,-66.9106,-167.1554,997.2,-1.23,-999.0,yes,yes,no,300234065333780,BD2GI,AOML,Palmer,South
2018-04-15T12:00:00Z,1523793600,2018,12,0,105.5,105.5,-66.9158,-167.145,996.4,-1.29,-999.0,yes,yes,no,300234065333780,BD2GI,AOML,Palmer,South
2018-04-15T13:00:28Z,1523797229,2018,13,0,105.542,105.542,-66.9186,-167.128,996.2,-1.26,-999.0,yes,yes,no,300234065333780,BD2GI,AOML,Palmer,South
2018-04-15T13:59:31Z,1523800771,2018,14,0,105.583,105.583,-66.9184,-167.11,996.0,-1.26,-999.0,yes,yes,no,300234065333780,BD2GI,AOML,Palmer,South
2018-04-15T15:00:00Z,1523804400,2018,15,0,105.625,105.625,-66.9134,-167.0894,996.0,-1.26,-999.0,yes,yes,no,300234065333780,BD2GI,AOML,Palmer,South
2018-04-15T16:00:28Z,1523808029,2018,16,0,105.667,105.667,-66.907,-167.0754,996.3,-1.26,-999.0,yes,yes,no,300234065333780,BD2GI,AOML,Palmer,South
2018-04-15T16:59:31Z,1523811571,2018,17,0,105.708,105.708,-66.8996,-167.0698,996.6,-1.26,-999.0,yes,yes,no,300234065333780,BD2GI,AOML,Palmer,South
2018-04-15T18:00:00Z,1523815200,2018,18,0,105.75,105.75,-66.8918,-167.072,996.6,-1.26,-999.0,yes,yes,no,300234065333780,BD2GI,AOML,Palmer,South
2018-04-15T19:00:28Z,1523818829,2018,19,0,105.792,105.792,-66.886,-167.0824,997.1,-1.23,-999.0,yes,yes,no,300234065333780,BD2GI,AOML,Palmer,South
2018-04-15T19:59:31Z,1523822371,2018,20,0,105.833,105.833,-66.8834,-167.0958,997.1,-1.26,-999.0,yes,yes,no,300234065333780,BD2GI,AOML,Palmer,South
2018-04-15T21:00:00Z,1523826000,2018,21,0,105.875,105.875,-66.8842,-167.1074,997.8,-1.26,-999.0,yes,yes,no,300234065333780,BD2GI,AOML,Palmer,South
2018-04-15T22:00:28Z,1523829629,2018,22,0,105.917,105.917,-66.8874,-167.1104,998.6,-1.26,-999.0,yes,yes,no,300234065333780,BD2GI,AOML,Palmer,South
2018-04-15T22:59:31Z,1523833171,2018,23,0,105.958,105.958,-66.8918,-167.1068,999.5,-1.23,-999.0,yes,yes,no,300234065333780,BD2GI,AOML,Palmer,South
2018-04-16T00:00:00Z,1523836800,2018,0,0,106.0,106.0,-66.896,-167.0956,1000.2,-1.23,-999.0,yes,yes,no,300234065333780,BD2GI,AOML,Palmer,South
2018-04-16T01:00:28Z,1523840429,2018,1,0,106.042,106.042,-66.8974,-167.079,1000.6,-1.26,-999.0,yes,yes,no,300234065333780,BD2GI,AOML,Palmer,South
2018-04-16T01:59:31Z,1523843971,2018,2,0,106.083,106.083,-66.897,-167.0592,1001.2,-1.26,-999.0,yes,yes,no,300234065333780,BD2GI,AOML,Palmer,South
2018-04-16T03:00:00Z,1523847600,2018,3,0,106.125,106.125,-66.8936,-167.0402,1001.7,-1.26,-999.0,yes,yes,no,300234065333780,BD2GI,AOML,Palmer,South
2018-04-16T04:00:28Z,1523851229,2018,4,0,106.167,106.167,-66.8884,-167.0236,1002.2,-1.26,-999.0,yes,yes,no,300234065333780,BD2GI,AOML,Palmer,South
2018-04-16T04:59:31Z,1523854771,2018,5,0,106.208,106.208,-66.8802,-167.0112,1002.5,-1.26,-999.0,yes,yes,no,300234065333780,BD2GI,AOML,Palmer,South
2018-04-16T06:00:00Z,1523858400,2018,6,0,106.25,106.25,-66.8722,-167.0058,1003.0,-1.26,-999.0,yes,yes,no,300234065333780,BD2GI,AOML,Palmer,South
2018-04-16T07:00:28Z,1523862029,2018,7,0,106.292,106.292,-66.865,-167.0094,1003.5,-1.26,-999.0,yes,yes,no,300234065333780,BD2GI,AOML,Palmer,South
2018-04-16T07:59:31Z,1523865571,2018,8,0,106.333,106.333,-66.8596,-167.0168,1004.1,-1.26,-999.0,yes,yes,no,300234065333780,BD2GI,AOML,Palmer,South
2018-04-16T09:00:00Z,1523869200,2018,9,0,106.375,106.375,-66.857,-167.028,1004.5,-1.26,-999.0,yes,yes,no,300234065333780,BD2GI,AOML,Palmer,South
2018-04-16T10:00:28Z,1523872829,2018,10,0,106.417,106.417,-66.8572,-167.0402,1004.7,-1.26,-999.0,yes,yes,no,300234065333780,BD2GI,AOML,Palmer,South
2018-04-16T10:59:31Z,1523876371,2018,11,0,106.458,106.458,-66.8606,-167.0442,1005.4,-1.26,-999.0,yes,yes,no,300234065333780,BD2GI,AOML,Palmer,South
2018-04-16T12:00:00Z,1523880000,2018,12,0,106.5,106.5,-66.8648,-167.0424,1005.8,-1.26,-999.0,yes,yes,no,300234065333780,BD2GI,AOML,Palmer,South
2018-04-16T13:00:28Z,1523883629,2018,13,0,106.542,106.542,-66.8684,-167.0366,1006.3,-1.26,-999.0,yes,yes,no,300234065333780,BD2GI,AOML,Palmer,South
2018-04-16T13:59:31Z,1523887171,2018,14,0,106.583,106.583,-66.8702,-167.0256,1006.9,-1.26,-999.0,yes,yes,no,300234065333780,BD2GI,AOML,Palmer,South
2018-04-16T15:00:00Z,1523890800,2018,15,0,106.625,106.625,-66.8696,-167.0112,1007.1,-1.26,-999.0,yes,yes,no,300234065333780,BD2GI,AOML,Palmer,South
2018-04-16T16:00:28Z,1523894429,2018,16,0,106.667,106.667,-66.8672,-166.9978,1008.2,-1.29,-999.0,yes,yes,no,300234065333780,BD2GI,AOML,Palmer,South
2018-04-16T16:59:31Z,1523897971,2018,17,0,106.708,106.708,-66.8626,-166.9866,1008.7,-1.29,-999.0,yes,yes,no,300234065333780,BD2GI,AOML,Palmer,South
2018-04-16T18:00:00Z,1523901600,2018,18,0,106.75,106.75,-66.856,-166.9804,1009.0,-1.29,-999.0,yes,yes,no,300234065333780,BD2GI,AOML,Palmer,South
2018-04-16T19:00:28Z,1523905229,2018,19,0,106.792,106.792,-66.8494,-166.9812,1009.7,-1.29,-999.0,yes,yes,no,300234065333780,BD2GI,AOML,Palmer,South
2018-04-16T19:59:31Z,1523908771,2018,20,0,106.833,106.833,-66.8436,-166.9878,1010.5,-1.33,-999.0,yes,yes,no,300234065333780,BD2GI,AOML,Palmer,South
2018-04-16T21:00:00Z,1523912400,2018,21,0,106.875,106.875,-66.839,-166.9972,1011.0,-1.33,-999.0,yes,yes,no,300234065333780,BD2GI,AOML,Palmer,South
2018-04-16T22:00:28Z,1523916029,2018,22,0,106.917,106.917,-66.8366,-167.0128,1011.9,-1.29,-999.0,yes,yes,no,300234065333780,BD2GI,AOML,Palmer,South
2018-04-16T22:59:31Z,1523919571,2018,23,0,106.958,106.958,-66.8362,-167.0274,1012.6,-1.29,-999.0,yes,yes,no,300234065333780,BD2GI,AOML,Palmer,South
2018-04-17T00:00:00Z,1523923200,2018,0,0,107.0,107.0,-66.8382,-167.0378,1013.0,-1.29,-999.0,yes,yes,no,300234065333780,BD2GI,AOML,Palmer,South
2018-04-17T01:00:28Z,1523926829,2018,1,0,107.042,107.042,-66.8422,-167.0428,1013.5,-1.29,-999.0,yes,yes,no,300234065333780,BD2GI,AOML,Palmer,South
2018-04-17T01:59:31Z,1523930371,2018,2,0,107.083,107.083,-66.8456,-167.0394,1013.5,-1.26,-999.0,yes,yes,no,300234065333780,BD2GI,AOML,Palmer,South
2018-04-17T03:00:00Z,1523934000,2018,3,0,107.125,107.125,-66.8476,-167.0276,1013.5,-1.26,-999.0,yes,yes,no,300234065333780,BD2GI,AOML,Palmer,South
2018-04-17T04:00:28Z,1523937629,2018,4,0,107.167,107.167,-66.8476,-167.0124,1013.7,-1.23,-999.0,yes,yes,no,300234065333780,BD2GI,AOML,Palmer,South
2018-04-17T04:59:31Z,1523941171,2018,5,0,107.208,107.208,-66.847,-166.9994,1013.6,-1.26,-999.0,yes,yes,no,300234065333780,BD2GI,AOML,Palmer,South
2018-04-17T06:00:00Z,1523944800,2018,6,0,107.25,107.25,-66.8418,-166.9884,1013.9,-1.26,-999.0,yes,yes,no,300234065333780,BD2GI,AOML,Palmer,South
2018-04-17T07:00:28Z,1523948429,2018,7,0,107.292,107.292,-66.8354,-166.9802,1014.1,-1.26,-999.0,yes,yes,no,300234065333780,BD2GI,AOML,Palmer,South
2018-04-17T07:59:31Z,1523951971,2018,8,0,107.333,107.333,-66.829,-166.9788,1014.2,-1.26,-999.0,yes,yes,no,300234065333780,BD2GI,AOML,Palmer,South
2018-04-17T09:00:00Z,1523955600,2018,9,0,107.375,107.375,-66.8236,-166.9832,1014.4,-1.26,-999.0,yes,yes,no,300234065333780,BD2GI,AOML,Palmer,South
2018-04-17T10:59:31Z,1523962771,2018,11,0,107.458,107.458,-66.817,-167.004,1014.5,-1.29,-999.0,yes,yes,no,300234065333780,BD2GI,AOML,Palmer,South
2018-04-17T12:00:00Z,1523966400,2018,12,0,107.5,107.5,-66.8168,-167.015,1014.5,-1.29,-999.0,yes,yes,no,300234065333780,BD2GI,AOML,Palmer,South
2018-04-17T13:00:28Z,1523970029,2018,13,0,107.542,107.542,-66.8198,-167.0202,1014.1,-1.29,-999.0,yes,yes,no,300234065333780,BD2GI,AOML,Palmer,South
2018-04-17T13:59:31Z,1523973571,2018,14,0,107.583,107.583,-66.8236,-167.0204,1013.5,-1.29,-999.0,yes,yes,no,300234065333780,BD2GI,AOML,Palmer,South
2018-04-17T15:00:00Z,1523977200,2018,15,0,107.625,107.625,-66.8278,-167.0142,1013.0,-1.29,-999.0,yes,yes,no,300234065333780,BD2GI,AOML,Palmer,South
2018-04-17T16:00:28Z,1523980829,2018,16,0,107.667,107.667,-66.8308,-167.0006,1012.9,-1.29,-999.0,yes,yes,no,300234065333780,BD2GI,AOML,Palmer,South
2018-04-17T16:59:31Z,1523984371,2018,17,0,107.708,107.708,-66.8316,-166.9832,1012.6,-1.29,-999.0,yes,yes,no,300234065333780,BD2GI,AOML,Palmer,South
2018-04-17T18:00:00Z,1523988000,2018,18,0,107.75,107.75,-66.8286,-166.9648,1012.6,-1.29,-999.0,yes,yes,no,300234065333780,BD2GI,AOML,Palmer,South
2018-04-17T19:00:28Z,1523991629,2018,19,0,107.792,107.792,-66.8244,-166.9548,1012.5,-1.33,-999.0,yes,yes,no,300234065333780,BD2GI,AOML,Palmer,South
2018-04-17T19:59:31Z,1523995171,2018,20,0,107.833,107.833,-66.8182,-166.9468,1012.3,-1.33,-999.0,yes,yes,no,300234065333780,BD2GI,AOML,Palmer,South